Location: Toronto
(43.6672°N, 79.4170°W)
Time: 12:15:46
(UTC-04:00)

ISS - Visible Passes

Search period start: 01 October 2014 00:00
Search period end: 11 October 2014 00:00
Orbit: 413 x 416 km, 51.6° (Epoch: 01 October)

Date Brightness Start Highest point End Pass type
(mag) Time Alt. Az. Time Alt. Az. Time Alt. Az.
01 Oct -2.3 05:38:21 32° S 05:38:21 32° S 05:40:41 10° SSE visible
05 Oct -1.0 20:37:19 10° SSW 20:38:12 16° S 20:38:12 16° S visible
06 Oct -1.6 19:48:54 10° S 19:51:12 18° SE 19:51:40 17° ESE visible
06 Oct -0.2 21:24:16 10° WSW 21:24:33 12° WSW 21:24:33 12° WSW visible
07 Oct -3.0 20:35:00 10° SW 20:37:49 60° SSW 20:37:49 60° SSW visible
08 Oct -2.9 19:45:55 10° SW 19:49:06 44° SE 19:50:55 22° E visible
08 Oct -0.3 21:22:46 10° W 21:23:47 17° WNW 21:23:47 17° WNW visible
09 Oct -2.6 20:33:12 10° WSW 20:36:27 48° NNW 20:36:43 46° N visible
10 Oct -3.2 19:43:45 10° WSW 19:47:04 75° NNW 19:49:31 17° NE visible
10 Oct -0.2 21:21:24 10° WNW 21:22:22 16° NW 21:22:22 16° NW visible
